Location: Newark
(15.4608°S, 41.1635°W)
Time: 22:22:33
(UTC+00:00)

Vanguard 3 - Pass Details

Date: 31 July 2021
Orbit: 510 x 3260 km, 33.3° (Epoch: 20 September)

Event Time Altitude Azimuth Distance (km) Brightness Sun altitude
Rises 05:32:37 0° 314° (NW) 6,191 - -51.3°
Reaches altitude 10° 05:37:30 10° 318° (NW) 4,750 - -50.2°
Maximum altitude 05:49:09 52° 30° (NNE) 1,701 - -47.4°
Exits shadow 05:53:32 24° 96° (E) 2,131 9.6 -46.4°
Drops below altitude 10° 05:55:42 10° 105° (ESE) 2,749 10.3 -45.8°
Sets 05:57:49 0° 111° (ESE) 3,457 11.0 -45.3°
